{"data":{"norad_id":57860,"intl_designator":"2023-141W","name":"STARLINK-30272","alt_names":[],"object_type":"PAYLOAD","status":"ACTIVE","operator":null,"country":"US","launch_date":"2023-09-12","launch_site_code":"AFWTR","launch_vehicle":null,"mission":null,"orbit_class":"UNKNOWN","rcs_meters":null,"size_class":null,"mass_kg":null,"dimensions":null,"purposes":["comms"],"wikipedia_slug":null,"has_3d_model":false,"image_url":null,"decayed_at":null,"tle_current":{"epoch":"2026-05-25T02:53:43.023840Z","epoch_age_seconds":65413,"freshness":"FRESH","line1":"1 57860U 23141W   26145.12063685  .00000923  00000+0  41489-4 0  9999","line2":"2 57860  53.1617 288.8408 0001223 105.4966 254.6170 15.31701064152032","mean_motion":15.31701064,"eccentricity":0.0001223,"inclination_deg":53.1617,"raan_deg":288.8408,"arg_perigee_deg":105.4966,"mean_anomaly_deg":254.617,"bstar":4.1489e-5,"rev_number":15203,"period_min":94.013122654591,"perigee_km":469.89920623024,"apogee_km":471.57444076746,"semimajor_km":6848.8738234988,"source":"CELESTRAK","updated_at":"2026-05-25T13:38:18.444470Z"}}}